Lapse_Rate
6.8 6.7 6.7 6.4 6.0 5.9 5.7 5.5 5.4 5.3 5.3 5.3 5.2 5.2 5.3 5.2 5.2 5.3 5.3 5.3 5.2 5.0 4.6 4.7 4.7 4.9 5.1 5.2 5.2 5.2 5.3 5.3 5.2 5.2 5.1 5.1 5.1 5.2 5.2 5.4 5.5 5.6 5.7
6.9 6.6 6.6 6.3 6.1 6.0 5.8 5.5 5.3 5.3 5.3 5.2 5.2 5.3 5.3 5.3 5.3 5.3 5.3 5.3 5.3 5.2 5.1 5.0 5.0 5.0 5.1 5.2 5.2 5.2 5.2 5.1 5.0 5.0 5.1 5.1 5.1 5.2 5.2 5.3 5.4 5.5 5.6
6.9 6.6 6.5 6.3 6.0 5.9 5.7 5.6 5.4 5.3 5.2 5.3 5.3 5.4 5.3 5.2 5.2 5.2 5.2 5.2 5.3 5.3 5.2 5.0 5.0 5.0 5.0 5.1 5.0 5.0 5.0 4.9 4.9 5.0 5.0 4.9 5.0 5.2 5.2 5.2 5.3 5.4 5.5
6.9 6.7 6.4 6.2 6.1 5.9 5.6 5.5 5.4 5.3 5.2 5.2 5.3 5.4 5.4 5.2 5.2 5.1 5.1 5.1 5.1 5.1 5.1 4.9 4.9 4.9 5.0 5.0 4.9 4.9 4.9 4.8 4.8 4.9 5.0 4.9 5.0 5.1 5.2 5.2 5.3 5.4 5.4
6.9 6.8 6.5 6.2 6.1 6.0 5.7 5.5 5.4 5.5 5.3 5.2 5.3 5.2 5.3 5.2 5.2 5.1 5.0 5.0 4.9 4.9 4.8 4.8 4.8 4.9 4.9 4.8 4.7 4.8 4.8 4.7 4.7 4.7 4.7 4.7 4.8 4.9 5.0 5.2 5.2 5.4 5.4
7.0 6.8 6.7 6.4 6.1 6.0 5.9 5.6 5.5 5.5 5.5 5.4 5.3 5.2 5.2 5.2 5.1 5.0 5.0 4.9 4.8 4.7 4.7 4.7 4.7 4.7 4.7 4.6 4.6 4.6 4.6 4.6 4.7 4.6 4.6 4.6 4.6 4.7 4.7 4.9 5.1 5.3 5.3
7.0 7.0 6.8 6.7 6.3 6.0 5.9 5.8 5.7 5.7 5.6 5.6 5.5 5.4 5.2 5.2 5.1 5.0 4.9 4.8 4.7 4.6 4.6 4.6 4.6 4.5 4.6 4.6 4.6 4.6 4.7 4.6 4.6 4.6 4.6 4.6 4.6 4.7 4.7 4.8 5.0 5.2 5.3
7.0 7.0 6.9 6.9 6.5 6.2 5.9 5.9 5.9 5.8 5.7 5.7 5.6 5.5 5.4 5.2 5.1 5.0 5.0 4.9 4.8 4.7 4.7 4.7 4.7 4.7 4.7 4.7 4.7 4.7 4.8 4.8 4.8 4.7 4.7 4.7 4.7 4.7 4.9 5.0 5.2 5.2 5.2
7.0 7.0 6.9 7.0 6.7 6.4 6.2 6.0 5.9 5.9 5.8 5.6 5.5 5.4 5.4 5.3 5.2 5.1 5.1 4.9 4.9 4.8 4.8 4.7 4.7 4.7 4.7 4.7 4.7 4.8 4.9 4.9 4.8 4.8 4.8 4.9 4.9 5.0 5.0 5.1 5.2 5.2 5.3
7.1 7.1 6.9 7.0 6.9 6.6 6.4 6.2 6.0 6.0 6.0 5.8 5.6 5.5 5.4 5.3 5.3 5.2 5.2 5.1 5.0 5.0 4.9 4.9 4.9 4.9 4.9 4.9 4.9 4.9 5.0 5.0 5.0 4.9 4.9 5.0 5.0 5.1 5.2 5.2 5.4 5.4 5.5
7.3 7.0 7.0 7.0 7.0 6.6 6.6 6.4 6.3 6.1 6.1 5.9 5.8 5.7 5.5 5.5 5.3 5.3 5.3 5.3 5.2 5.2 5.1 5.1 5.1 5.0 5.0 5.0 5.0 5.1 5.1 5.1 5.1 5.1 5.2 5.2 5.3 5.4 5.3 5.3 5.5 5.6 5.5
7.4 7.1 6.9 7.0 6.9 6.7 6.6 6.5 6.4 6.3 6.2 6.1 6.0 5.9 5.7 5.6 5.6 5.5 5.4 5.4 5.4 5.3 5.3 5.3 5.3 5.2 5.2 5.2 5.2 5.3 5.3 5.2 5.3 5.3 5.4 5.5 5.6 5.6 5.5 5.5 5.6 5.6 5.7
7.2 7.2 6.9 6.9 6.8 6.7 6.7 6.6 6.5 6.4 6.4 6.3 6.2 6.1 5.9 5.8 5.7 5.6 5.6 5.5 5.5 5.4 5.4 5.5 5.4 5.4 5.4 5.4 5.4 5.4 5.4 5.4 5.4 5.5 5.5 5.5 5.6 5.5 5.5 5.6 5.7 5.7 5.8
6.9 7.1 7.0 6.7 6.7 6.7 6.6 6.8 6.5 6.3 6.4 6.4 6.3 6.2 6.0 6.0 5.8 5.8 5.7 5.6 5.5 5.5 5.5 5.5 5.5 5.5 5.4 5.4 5.4 5.4 5.4 5.3 5.3 5.4 5.5 5.4 5.4 5.5 5.6 5.7 5.6 5.7 5.8
7.1 6.9 7.0 7.1 7.0 6.7 6.6 6.6 6.5 6.3 6.4 6.4 6.4 6.2 6.1 6.0 5.9 5.8 5.7 5.6 5.6 5.6 5.6 5.5 5.4 5.4 5.4 5.4 5.4 5.4 5.3 5.4 5.5 5.5 5.5 5.5 5.6 5.6 5.6 5.7 5.7 5.6 5.7
7.3 7.1 7.0 7.0 7.0 7.0 6.8 6.4 6.4 6.3 6.4 6.4 6.4 6.3 6.2 6.0 5.9 5.7 5.6 5.6 5.6 5.6 5.5 5.4 5.4 5.3 5.3 5.4 5.4 5.4 5.4 5.6 5.6 5.5 5.6 5.6 5.6 5.6 5.5 5.6 5.5 5.7 5.9
7.1 7.0 6.9 6.8 6.9 6.9 6.9 6.6 6.3 6.3 6.3 6.4 6.3 6.3 6.2 6.1 5.9 5.8 5.8 5.7 5.7 5.6 5.5 5.5 5.4 5.3 5.3 5.4 5.4 5.4 5.5 5.5 5.5 5.5 5.6 5.5 5.6 5.5 5.4 5.5 5.5 5.7 5.8
7.1 7.0 6.9 6.9 6.9 6.8 6.8 6.7 6.6 6.5 6.4 6.3 6.4 6.3 6.2 6.0 5.9 5.9 5.8 5.7 5.6 5.6 5.5 5.5 5.4 5.3 5.4 5.4 5.4 5.4 5.4 5.5 5.4 5.5 5.4 5.4 5.5 5.5 5.5 5.4 5.4 5.6 5.7
6.9 6.9 6.8 6.8 6.7 6.8 6.8 6.7 6.6 6.6 6.5 6.5 6.5 6.3 6.1 6.0 6.0 5.9 5.8 5.7 5.6 5.6 5.6 5.5 5.4 5.4 5.4 5.5 5.4 5.5 5.4 5.4 5.4 5.5 5.4 5.3 5.4 5.5 5.4 5.3 5.6 5.4 5.5
6.8 6.8 6.7 6.8 6.8 6.8 6.8 6.9 6.7 6.6 6.5 6.4 6.3 6.1 6.1 6.1 6.0 6.0 5.9 5.8 5.7 5.7 5.6 5.5 5.5 5.5 5.6 5.6 5.6 5.6 5.5 5.5 5.5 5.5 5.4 5.3 5.3 5.5 5.5 5.6 5.4 5.6 5.5
6.9 6.8 6.7 6.8 6.8 6.7 6.9 6.8 6.7 6.8 6.6 6.4 6.3 6.3 6.2 6.1 6.1 6.1 6.0 5.9 5.8 5.7 5.6 5.6 5.7 5.7 5.7 5.7 5.6 5.6 5.6 5.6 5.7 5.6 5.6 5.5 5.5 5.5 5.4 5.6 5.6 5.5 5.5
6.8 7.0 6.8 6.9 6.8 6.8 6.7 6.6 6.7 6.8 6.7 6.9 6.7 6.6 6.4 6.4 6.3 6.3 6.3 6.1 5.9 5.8 5.8 5.7 5.6 5.7 5.6 5.6 5.6 5.6 5.6 5.7 5.5 5.2 6.0 5.7 5.3 5.4 5.5 5.4 5.5 5.6 5.7
7.0 6.9 7.0 6.9 6.9 6.9 6.8 6.6 6.8 6.9 6.9 6.9 6.7 6.4 6.6 6.5 6.3 6.3 6.2 6.1 6.0 5.9 5.9 5.9 5.8 5.7 5.7 5.8 5.7 5.6 5.4 5.4 5.4 5.4 5.6 6.2 5.5 5.6 5.7 5.8 5.7 5.6 5.6
6.8 7.0 6.8 6.8 6.8 6.8 6.8 6.8 6.9 6.7 6.8 6.7 6.6 6.4 6.2 6.2 6.2 6.3 6.2 6.1 6.1 6.0 6.0 6.1 6.1 6.0 5.9 5.9 5.8 5.8 5.6 5.4 5.3 5.4 5.6 5.6 5.6 5.7 5.8 5.6 5.6 5.6 5.6
6.7 6.8 6.7 7.0 6.8 6.8 6.8 6.9 6.8 6.7 6.5 6.6 6.5 6.3 6.2 6.2 6.2 6.2 6.3 6.3 6.3 6.3 6.4 6.3 6.3 6.2 6.1 6.0 5.8 5.7 5.8 5.6 5.6 5.5 5.4 5.5 5.3 5.4 5.7 5.6 5.8 5.8 5.9
6.6 6.7 6.4 6.6 6.9 6.9 6.6 6.6 6.6 6.6 6.6 6.4 6.3 6.3 6.2 6.2 6.4 6.5 6.6 6.6 6.7 6.7 6.6 6.5 6.3 6.3 6.1 6.0 5.8 5.7 5.6 5.8 5.7 5.6 5.5 5.4 5.1 5.2 5.2 5.1 5.6 5.6 5.9
Wind_Speed
14 22 20 19 17 18 15 14 14 13 12 11 10 9 11 13 15 14 13 13 13 14 15 19 19 19 19 18 18 17 16 14 13 12 13 14 14 13 12 13 5 13 12
18 24 22 19 17 17 16 15 15 14 13 11 9 9 15 16 15 14 13 13 14 14 13 17 16 17 17 17 16 16 14 12 8 6 8 17 13 14 14 12 16 10 9
18 24 22 20 18 16 15 16 16 14 13 11 9 10 16 15 14 14 13 12 13 14 14 16 15 15 15 14 13 14 13 9 4 2 2 11 12 13 19 10 11 12 11
19 23 21 18 18 17 18 17 16 14 12 11 9 9 15 14 14 13 13 13 12 12 13 13 13 13 13 12 10 12 11 5 3 3 2 13 15 16 19 19 11 12 9
16 22 23 17 18 21 19 17 15 13 12 11 9 8 11 15 15 14 13 13 12 12 12 13 12 12 12 11 11 11 9 6 10 9 16 16 12 15 15 17 15 15 16
16 19 24 18 18 19 19 18 14 12 10 12 10 9 9 15 15 14 13 12 12 12 11 11 11 11 12 11 11 10 8 9 14 10 11 12 13 13 12 14 14 14 14
15 22 21 20 18 17 18 17 14 11 9 11 11 9 7 16 16 15 12 11 11 11 10 10 9 9 10 9 9 8 7 9 9 8 9 13 11 11 11 12 13 13 13
14 19 20 19 18 16 16 15 13 11 9 8 6 10 10 16 17 15 11 10 9 9 8 8 7 7 8 8 6 6 5 7 4 7 7 10 7 8 10 11 12 12 12
14 17 16 18 17 17 16 14 12 11 9 6 10 12 17 17 16 14 10 8 8 7 7 6 5 5 5 7 6 5 4 7 7 6 5 10 7 4 6 8 9 9 10
12 12 12 18 18 17 15 15 12 10 9 9 10 12 13 11 13 13 9 8 7 6 5 5 4 3 3 4 4 2 2 7 4 2 3 6 3 2 1 4 7 8 8
7 10 9 14 15 15 16 14 13 10 8 8 8 9 10 9 9 8 10 9 6 5 4 4 3 3 1 2 1 1 5 4 3 3 3 5 2 3 3 2 4 5 6
10 12 9 7 10 12 15 16 12 10 10 10 10 10 10 5 5 3 9 6 5 5 5 4 3 3 6 5 7 5 8 3 3 3 3 3 2 4 3 6 2 2 3
10 7 9 10 11 8 8 14 11 7 5 6 8 9 6 6 5 7 8 8 8 9 9 8 8 9 3 3 2 4 3 4 5 3 1 2 1 4 3 7 4 3 1
13 15 14 9 8 12 7 8 11 8 11 10 8 8 7 6 5 5 5 5 6 8 7 6 6 4 5 5 6 5 5 6 6 4 4 3 3 4 7 8 5 4 2
6 6 8 10 9 9 7 9 9 12 10 9 9 8 7 6 5 5 5 6 6 6 5 6 6 6 6 6 6 6 7 8 8 6 6 6 5 7 8 11 9 7 5
7 8 8 9 9 11 7 5 8 10 9 9 8 9 10 7 6 6 5 5 6 6 7 7 6 5 5 6 6 7 7 7 7 8 7 6 8 9 10 10 10 10 9
10 10 10 11 9 7 8 6 8 8 7 8 8 9 10 9 8 6 6 4 6 7 7 7 7 7 5 7 7 8 8 8 8 9 9 9 8 11 12 13 13 13 13
11 12 10 7 9 11 11 10 9 8 9 8 9 9 10 10 9 7 5 5 7 7 7 6 5 5 6 6 6 6 5 8 10 11 10 10 9 10 11 15 16 16 15
10 12 12 11 10 9 8 8 9 10 8 10 10 9 9 10 10 9 7 7 8 7 6 6 6 6 6 6 6 6 6 6 8 10 12 12 12 10 9 10 15 15 17
10 11 12 10 11 10 7 5 5 6 8 11 10 9 10 9 10 9 8 9 9 5 6 7 8 6 6 5 6 7 7 6 7 7 8 10 11 10 7 10 8 11 18
7 11 12 12 11 9 7 6 6 6 6 6 9 10 8 9 10 9 8 7 7 7 8 8 7 6 5 7 6 6 7 8 8 6 6 7 7 3 7 8 8 8 8
8 9 11 13 12 10 7 6 6 6 5 6 7 8 9 10 10 9 8 7 4 4 9 9 8 6 5 3 2 4 3 6 6 5 2 3 4 6 3 5 6 7 6
7 8 9 10 9 10 10 6 3 1 0 2 4 5 5 5 7 5 6 4 4 3 4 4 3 3 4 2 5 3 3 4 3 3 4 3 4 3 2 3 3 5 5
8 6 7 8 9 8 8 7 8 6 6 6 3 2 2 2 3 4 6 6 5 3 3 4 4 4 4 6 1 3 5 1 3 3 2 3 2 3 3 1 1 2 4
8 6 6 6 7 7 7 8 7 8 4 2 2 4 4 3 2 2 3 4 4 3 4 5 5 6 4 5 6 4 5 5 7 5 5 3 2 1 1 1 1 2 6
9 8 6 8 7 7 7 7 7 6 5 4 4 3 3 2 2 2 2 3 3 4 5 4 5 5 6 7 6 6 7 4 4 3 4 5 3 3 2 0 4 5 7
Wind_Direction
147 145 151 151 148 138 144 136 128 121 110 102 92 92 107 103 88 79 77 79 74 78 72 81 80 82 81 81 80 77 74 74 75 79 81 67 60 48 33 31 136 74 66
144 148 150 150 151 149 141 132 120 113 112 103 98 104 106 93 87 83 81 84 81 84 79 85 87 84 83 80 79 76 72 72 76 98 107 93 61 48 41 50 48 64 61
142 146 154 151 153 148 133 128 119 117 109 105 105 108 102 99 91 84 86 84 84 84 80 88 89 85 82 81 80 75 67 63 67 352 258 95 69 51 54 66 66 58 48
143 146 154 149 148 141 129 127 124 117 114 112 110 118 115 106 93 86 88 89 89 91 91 90 89 85 81 78 80 75 64 37 337 300 211 70 74 55 48 57 80 46 50
144 153 138 148 140 136 133 132 130 127 121 118 115 121 118 113 99 93 92 91 91 95 98 94 89 83 75 71 79 80 64 18 340 62 56 60 63 51 47 44 47 40 38
146 148 137 140 136 135 137 137 135 128 125 125 123 125 123 116 107 100 98 95 92 94 96 92 87 78 70 67 79 78 49 1 328 54 80 88 57 47 45 45 41 37 33
150 127 142 135 137 138 139 137 135 129 127 130 133 137 139 127 115 103 102 100 99 98 98 94 87 81 74 72 91 80 49 10 46 54 56 55 54 53 51 49 42 36 32
148 133 142 140 138 145 140 136 132 127 125 132 148 174 156 129 115 106 106 107 106 104 105 102 93 81 70 63 89 74 35 354 38 58 54 75 61 70 63 55 46 37 34
148 136 157 153 146 144 144 139 134 128 124 121 77 132 135 132 121 119 115 116 116 111 103 96 92 82 71 67 80 74 26 337 338 47 26 77 56 72 69 65 53 43 33
153 126 172 152 157 158 156 149 139 130 128 131 111 116 117 119 121 118 133 132 131 132 123 117 106 89 77 72 71 67 314 284 351 25 58 71 46 17 107 66 56 45 37
127 154 186 164 159 164 159 156 143 133 128 138 142 139 157 171 177 161 114 127 140 142 142 136 129 127 168 172 172 279 289 281 359 9 39 81 9 308 212 128 68 57 47
167 176 156 159 166 167 157 156 157 157 167 173 176 175 207 174 154 87 124 139 161 168 170 176 169 208 233 214 178 215 246 318 316 324 65 84 343 297 276 195 137 89 65
174 168 144 166 171 152 168 165 152 178 225 211 177 183 181 176 174 199 170 183 194 196 201 193 191 220 230 279 279 272 302 305 292 279 100 129 283 309 249 188 177 158 115
184 179 170 176 166 174 168 176 164 173 220 197 186 196 179 182 187 191 206 194 205 181 228 219 231 227 231 245 264 273 271 269 283 292 276 182 255 274 228 213 202 199 208
204 194 183 184 183 205 182 169 172 209 195 201 185 201 209 200 186 203 202 202 213 219 230 231 239 249 244 254 256 255 266 274 273 275 282 194 237 251 252 232 227 216 219
211 198 189 189 198 196 185 187 213 205 190 211 199 200 214 219 214 216 212 217 223 226 232 237 245 238 252 248 258 262 262 263 265 272 266 263 219 241 244 243 245 239 228
203 196 193 193 190 189 194 193 230 211 229 215 217 205 210 214 220 226 243 225 222 227 236 243 254 258 265 266 263 265 266 270 272 259 256 260 253 229 240 237 240 244 243
200 200 198 191 194 203 190 199 212 223 211 227 224 218 208 217 218 224 228 233 243 234 234 241 244 250 252 260 267 267 257 244 261 266 267 258 248 257 231 232 232 238 244
205 186 194 191 193 201 218 200 211 203 217 220 222 215 213 219 218 219 229 230 232 236 243 244 250 253 264 268 273 273 276 281 271 268 263 258 255 242 258 262 224 230 239
195 197 187 188 198 192 205 220 210 218 210 225 221 221 215 222 224 229 234 241 247 242 247 252 253 257 258 266 274 278 275 266 269 264 270 285 284 262 258 258 241 229 235
217 198 196 193 198 195 197 200 225 208 213 226 224 225 238 238 232 234 247 250 245 252 259 259 262 255 253 262 274 269 260 253 244 259 273 269 266 266 256 257 252 262 266
213 209 202 200 194 199 194 204 213 221 223 219 215 227 235 237 241 247 248 254 258 259 263 267 268 266 273 276 253 291 282 271 261 223 254 310 298 298 254 261 267 275 278
217 211 206 198 198 195 201 202 183 65 329 218 221 229 232 254 259 287 311 319 302 308 271 293 344 303 251 239 222 231 278 250 345 132 204 222 267 268 291 345 300 324 323
207 208 226 198 196 195 201 199 198 210 213 214 242 122 152 230 253 258 258 248 237 233 245 258 261 245 238 250 229 245 243 139 263 297 241 269 252 315 256 132 315 342 29
180 189 197 193 187 178 190 211 217 231 250 97 153 185 202 189 214 228 263 277 276 282 283 280 272 258 258 261 250 247 218 234 230 232 264 268 244 143 228 282 289 23 42
169 173 181 176 179 177 174 194 203 201 186 175 180 198 196 193 183 203 280 278 291 283 282 280 277 270 261 260 260 263 253 224 219 206 228 233 247 299 338 163 58 51 54